| time (UTC) | temp C | wind direction | speed KPH | gust KPH | rain 1hr cm | rain 24hr cm | rain mn cm | humidity % | barometer mb |
| 20260504230625 | 13 | 247 | 0.0 | 3.2 | 0.00 | 0.00 | 0.00 | 66 | 1008.6 |
| 20260504225627 | 13 | 230 | 1.6 | 4.8 | 0.00 | 0.00 | 0.00 | 64 | 1008.5 |
| 20260504224724 | 13 | 247 | 4.8 | 9.7 | 0.00 | 0.00 | 0.00 | 63 | 1008.3 |
| 20260504221824 | 14 | 270 | 4.8 | 11.3 | 0.00 | 0.00 | 0.00 | 61 | 1008.4 |
| 20260504220828 | 14 | 258 | 1.6 | 9.7 | 0.00 | 0.00 | 0.00 | 61 | 1008.2 |
| 20260504215924 | 14 | 255 | 4.8 | 9.7 | 0.00 | 0.00 | 0.00 | 61 | 1007.9 |
| 20260504214925 | 14 | 253 | 6.4 | 12.9 | 0.00 | 0.00 | 0.00 | 61 | 1007.9 |
| 20260504213928 | 14 | 234 | 1.6 | 3.2 | 0.00 | 0.00 | 0.00 | 61 | 1007.9 |
| 20260504212926 | 14 | 261 | 3.2 | 8.0 | 0.00 | 0.00 | 0.00 | 62 | 1007.8 |
| 20260504211927 | 15 | 260 | 0.0 | 4.8 | 0.00 | 0.00 | 0.00 | 61 | 1007.8 |
| 20260504210927 | 15 | 232 | 1.6 | 8.0 | 0.00 | 0.00 | 0.00 | 61 | 1007.8 |
| 20260504205924 | 15 | 258 | 3.2 | 8.0 | 0.00 | 0.00 | 0.00 | 61 | 1007.8 |
| 20260504204927 | 15 | 215 | 6.4 | 12.9 | 0.00 | 0.00 | 0.00 | 61 | 1007.8 |
| 20260504202124 | 14 | 215 | 4.8 | 14.5 | 0.00 | 0.00 | 0.00 | 63 | 1007.6 |
| 20260504201126 | 13 | 219 | 4.8 | 9.7 | 0.00 | 0.03 | 0.00 | 64 | 1007.7 |
| 20260504195324 | 12 | 225 | 3.2 | 8.0 | 0.00 | 0.03 | 0.00 | 67 | 1007.7 |
| 20260504194328 | 12 | 229 | 8.0 | 11.3 | 0.00 | 0.05 | 0.00 | 68 | 1007.8 |
| 20260504193327 | 11 | 238 | 6.4 | 11.3 | 0.00 | 0.05 | 0.00 | 69 | 1007.9 |
| 20260504192326 | 11 | 229 | 4.8 | 9.7 | 0.00 | 0.05 | 0.00 | 71 | 1007.9 |
| 20260504191327 | 11 | 237 | 3.2 | 6.4 | 0.00 | 0.05 | 0.00 | 73 | 1008.1 |
| 20260504190325 | 11 | 225 | 6.4 | 12.9 | 0.00 | 0.08 | 0.00 | 74 | 1008.3 |
| 20260504190228 | 10 | 203 | 1.6 | 6.4 | 0.00 | 0.08 | 0.00 | 75 | 1008.3 |
| 20260504184324 | 11 | 225 | 4.8 | 11.3 | 0.00 | 0.10 | 0.00 | 74 | 1008.7 |
| 20260504183326 | 11 | 247 | 0.0 | 3.2 | 0.00 | 0.13 | 0.00 | 73 | 1008.8 |
| 20260504182424 | 11 | 274 | 1.6 | 4.8 | 0.00 | 0.15 | 0.00 | 71 | 1008.7 |
| 20260504180426 | 10 | 250 | 1.6 | 4.8 | 0.00 | 0.20 | 0.00 | 69 | 1008.5 |
| 20260504175425 | 10 | 225 | 4.8 | 11.3 | 0.00 | 0.23 | 0.00 | 70 | 1008.3 |
| 20260504174427 | 10 | 233 | 1.6 | 6.4 | 0.00 | 0.28 | 0.00 | 71 | 1008.3 |
| 20260504173524 | 10 | 234 | 3.2 | 12.9 | 0.00 | 0.30 | 0.00 | 71 | 1008.3 |
| 20260504172525 | 10 | 238 | 6.4 | 14.5 | 0.00 | 0.33 | 0.00 | 70 | 1008.0 |
| 20260504171525 | 11 | 235 | 8.0 | 16.1 | 0.00 | 0.36 | 0.00 | 65 | 1008.1 |
| 20260504170625 | 12 | 233 | 3.2 | 11.3 | 0.00 | 0.36 | 0.00 | 63 | 1007.9 |
| 20260504150725 | 11 | 227 | 6.4 | 11.3 | 0.00 | 0.76 | 0.00 | 56 | 1009.0 |
| 20260504110126 | 5 | 233 | 4.8 | 11.3 | 0.00 | 1.65 | 0.00 | 72 | 1009.8 |
| 20260504100326 | 3 | 270 | 1.6 | 4.8 | 0.00 | 1.88 | 0.00 | 79 | 1009.2 |
| 20260504081525 | 3 | 270 | 4.8 | 8.0 | 0.00 | 2.11 | 0.00 | 76 | 1008.5 |
| 20260504080527 | 3 | 261 | 4.8 | 9.7 | 0.00 | 2.13 | 0.00 | 76 | 1008.3 |
| 20260504045624 | 3 | 185 | 1.6 | 4.8 | 0.00 | 2.54 | 0.00 | 75 | 1007.3 |
| 20260504042724 | 3 | 268 | 4.8 | 16.1 | 0.00 | 2.54 | 0.00 | 75 | 1007.2 |
| 20260504041824 | 3 | 270 | 1.6 | 4.8 | 0.00 | 2.54 | 0.00 | 75 | 1007.2 |
| 20260504040824 | 3 | 253 | 1.6 | 6.4 | 0.00 | 2.54 | 0.00 | 75 | 1007.0 |
| 20260504035833 | 3 | 282 | 4.8 | 9.7 | 0.00 | 2.54 | 2.54 | 75 | 1007.0 |
| 20260504034932 | 3 | 270 | 0.0 | 1.6 | 0.00 | 2.54 | 2.54 | 74 | 1006.8 |
| 20260504033936 | 4 | 312 | 1.6 | 8.0 | 0.00 | 2.54 | 2.54 | 73 | 1006.8 |
| 20260504032935 | 4 | 270 | 3.2 | 6.4 | 0.00 | 2.54 | 2.54 | 74 | 1006.8 |
| 20260504031933 | 4 | 336 | 3.2 | 4.8 | 0.00 | 2.54 | 2.54 | 73 | 1006.7 |
| 20260504030835 | 4 | 251 | 4.8 | 11.3 | 0.00 | 2.54 | 2.54 | 74 | 1006.5 |
| 20260504025935 | 4 | 333 | 3.2 | 4.8 | 0.00 | 2.54 | 2.54 | 75 | 1006.4 |
| 20260504024035 | 5 | 262 | 3.2 | 9.7 | 0.00 | 2.54 | 2.54 | 75 | 1006.3 |
| 20260504022036 | 5 | 239 | 8.0 | 14.5 | 0.00 | 2.54 | 2.54 | 75 | 1006.2 |
| 20260504021135 | 5 | 287 | 3.2 | 9.7 | 0.00 | 2.54 | 2.54 | 73 | 1006.3 |
| 20260504020134 | 6 | 271 | 8.0 | 17.7 | 0.00 | 2.54 | 2.54 | 72 | 1006.0 |
| 20260504015136 | 6 | 235 | 4.8 | 9.7 | 0.00 | 2.54 | 2.54 | 75 | 1005.9 |
| 20260504013233 | 5 | 286 | 3.2 | 11.3 | 0.00 | 2.54 | 2.54 | 84 | 1005.8 |
| 20260504012235 | 5 | 271 | 3.2 | 6.4 | 0.00 | 2.54 | 2.54 | 88 | 1005.7 |
| 20260504011235 | 5 | 247 | 3.2 | 8.0 | 0.00 | 2.54 | 2.54 | 91 | 1005.5 |
| 20260504010333 | 5 | 224 | 1.6 | 4.8 | 0.00 | 2.54 | 2.54 | 91 | 1005.5 |
| 20260504005335 | 5 | 192 | 3.2 | 6.4 | 0.00 | 2.54 | 2.54 | 90 | 1005.3 |
| 20260504004334 | 6 | 315 | 1.6 | 3.2 | 0.00 | 2.54 | 2.54 | 91 | 1005.2 |
| 20260504003334 | 6 | 315 | 0.0 | 0.0 | 0.00 | 2.54 | 2.54 | 90 | 1004.9 |
| 20260504002334 | 6 | 315 | 0.0 | 1.6 | 0.00 | 2.54 | 2.54 | 89 | 1004.9 |
| 20260504001333 | 6 | 180 | 0.0 | 1.6 | 0.00 | 2.54 | 2.54 | 89 | 1004.8 |
| 20260504000336 | 6 | 180 | 1.6 | 1.6 | 0.00 | 2.54 | 2.54 | 89 | 1004.6 |
| 20260503235334 | 6 | 304 | 4.8 | 12.9 | 0.00 | 2.54 | 2.54 | 89 | 1004.6 |
| 20260503234336 | 6 | 316 | 0.0 | 6.4 | 0.00 | 2.54 | 2.54 | 87 | 1004.2 |
| 20260503233336 | 6 | 271 | 1.6 | 4.8 | 0.00 | 2.54 | 2.54 | 88 | 1004.1 |
| 20260503232433 | 6 | 302 | 6.4 | 11.3 | 0.00 | 2.54 | 2.54 | 88 | 1004.0 |